Location: Vihti�l�
(61.3833°N, 23.0667°E)
Time: 05:50:37
(UTC+00:00)

USA 229 DEB - Pass Details

Date: 29 November 2020
Orbit: 965 x 1247 km, 63.4° (Epoch: 16 January)

Event Time Altitude Azimuth Distance (km) Brightness Sun altitude
Exits shadow 02:07:31 71° 47° (NE) 1,164 3.8 -34.0°
Drops below altitude 10° 02:14:02 10° 76° (ENE) 3,059 6.9 -33.3°
Sets 02:16:51 0° 77° (ENE) 4,060 7.8 -32.9°
